Location: Grums
(59.3529°N, 13.1129°E)
Time: 07:26:36
(UTC+02:00)

Nauka - Pass Details

Date: 26 September 2021
Orbit: 417 x 423 km, 51.6° (Epoch: 23 October)

Event Time Altitude Azimuth Distance (km) Brightness Sun altitude
Rises 20:57:08 0° 257° (WSW) 2,365 ? -16.0°
Reaches altitude 10° 20:59:35 10° 240° (WSW) 1,502 ? -16.3°
Maximum altitude 21:02:07 20° 192° (SSW) 1,039 ? -16.5°
Enters shadow 21:02:31 20° 181° (S) 1,053 ? -16.6°
